Preview of NWS' New Version of Forecast
This preview is not operational and should not be used for support decisions.

Regional Weather Roundup (RWR)

Issued by National Weather Service (NWS)

                            
000
ASUS43 KDMX 230201
RWRIA 

WEATHER ROUNDUP FOR IOWA
NATIONAL WEATHER SERVICE DES MOINES IA
800 PM CST FRI FEB 22 2019

NOTE: "FAIR" INDICATES FEW OR NO CLOUDS BELOW 12,000 FEET WITH NO
SIGNIFICANT WEATHER AND/OR OBSTRUCTIONS TO VISIBILITY.

* - THESE STATIONS ARE NOT NWS STATIONS...THUS NOT UNDER NWS
QUALITY CONTROL.  THEY ALSO DO NOT REPORT WEATHER SUCH 
AS PRECIPITATION OR FOG.  

IAZ001>003-012>014-020>022-031>034-043>046-230300-
   NORTHWEST IOWA
  
CITY           SKY/WX    TMP DP  RH WIND       PRES   REMARKS
CARROLL *      MIX PCPN  28  25  86 E17       30.13F WCI  16          
CHEROKEE *     LGT SNOW  25  23  92 E13       30.12F WCI  13          
DENISON *      MIX PCPN  27  23  86 E13G21    30.10F WCI  16          
LE MARS *      FLURRIES  25  23  93 E9        30.11F WCI  15          
ORANGE CITY *  LGT SNOW  25  21  86 E12       30.11F WCI  14          
SHELDON *      CLOUDY    25  23  93 SE17      30.11F WCI  11          
SIOUX CITY     MIX PCPN  27  22  81 E9        30.08F WCI  18          
SPENCER        CLOUDY    25  17  72 E10       30.16R WCI  15          
STORM LAKE *   CLOUDY    23  21  93 SE20G25   30.10F FOG     WCI   8  
$$
 
IAZ055>058-069>071-079>083-090>094-230300-
   SOUTHWEST IOWA
  
CITY           SKY/WX    TMP DP  RH WIND       PRES   REMARKS
ATLANTIC *     CLOUDY    30  27  86 E12       30.09S WCI  21          
AUDUBON *      MIX PCPN  28  25  86 E12G17    30.11F WCI  18          
CLARINDA *     CLOUDY    34  32  93 SE9G17    30.09F WCI  26          
COUNCIL BLFS * CLOUDY    30  28  93 E15G21    30.03F WCI  19          
CRESTON *      CLOUDY    32  25  74 E13       30.10F WCI  22          
HARLAN  *      MIX PCPN  28  25  86 E10       30.09F WCI  19          
LAMONI         CLOUDY    34  28  79 E10G18    30.10F WCI  26          
RED OAK *      CLOUDY    34  27  75 E10       30.07F WCI  26          
SHENANDOAH *   CLOUDY    36  32  87 E8G20     30.07F WCI  29          
$$
 
IAZ047>049-059>061-072>074-084-230300-
   CENTRAL IOWA
  
CITY           SKY/WX    TMP DP  RH WIND       PRES   REMARKS
AMES           MIX PCPN  30  21  69 E8        30.17F WCI  22          
ANKENY *       MIX PCPN  30  23  74 E6        30.18F WCI  24          
BOONE *        CLOUDY    28  25  86 E10       30.15F WCI  19          
CHARITON *     CLOUDY    34  28  80 E9        30.13F WCI  26          
DES MOINES     FRZ RAIN  30  23  75 E7        30.16F WCI  23          
GRINNELL*      MIX PCPN  31  25  77 E14       30.18F WCI  21          
KNOXVILLE *    CLOUDY    32  30  93 E8        30.15S WCI  25          
MARSHALLTOWN   CLOUDY    29  24  82 E15       30.18S WCI  18          
NEWTON *       CLOUDY    30  25  80 E17       30.16F WCI  18          
PELLA *        MIX PCPN  32  25  76 E7G16     30.17F WCI  26          
$$
 
IAZ004>006-015-016-023>025-035-036-230300-
   NORTH CENTRAL IOWA
  
CITY           SKY/WX    TMP DP  RH WIND       PRES   REMARKS
ALGONA *       CLOUDY    27  21  80 SE16G26   30.15R WCI  14          
CLARION *      CLOUDY    27  21  80 E14       30.18S WCI  15          
ESTHERVILLE    CLOUDY    23  18  81 E8        30.16S WCI  14          
FORT DODGE *   CLOUDY    26  21  81 E12       30.16F WCI  16          
MASON CITY     CLOUDY    27  20  75 E12       30.21F WCI  17          
FOREST CITY *  CLOUDY    28  21  74 E14G21    30.18F WCI  17          
IOWA FALLS *   CLOUDY    30  23  75 E16       30.18F WCI  18          
$$

IAZ007>011-017>019-026>030-037>042-050>054-066-230300-
   NORTHEAST IOWA
  
CITY           SKY/WX    TMP DP  RH WIND       PRES   REMARKS
CEDAR RAPIDS   CLOUDY    31  25  78 E17       30.20F HAZE    WCI  19  
CHARLES CITY * CLOUDY    30  19  64 E16       30.21F WCI  19          
CLINTON *      CLOUDY    34  27  75 E15       30.24F WCI  24          
DECORAH *      CLOUDY    32  19  59 E10       30.22F WCI  24          
DUBUQUE        CLOUDY    31  21  66 E10       30.24F WCI  22          
OELWEIN *      CLOUDY    30  21  69 E12       30.23S WCI  21          
WATERLOO       CLOUDY    30  21  69 E13       30.22F WCI  20          
$$
 
IAZ064-065-067-068-078-230300-
   EAST CENTRAL IOWA
  
CITY           SKY/WX    TMP DP  RH WIND       PRES   REMARKS
DAVENPORT      CLOUDY    34  28  79 E12       30.25F HAZE    WCI  25  
IOWA CITY      CLOUDY    34  27  75 E8G18     30.23F WCI  27          
MT. PLEASANT * CLOUDY    36  34  93 E8        30.19F WCI  29          
MUSCATINE *    CLOUDY    36  30  80 E12       30.23F WCI  27          
QUAD CITIES    CLOUDY    36  30  79 E8        30.23F HAZE    WCI  30  
$$
 
IAZ062-063-075>077-085>089-095>099-230300-
   SOUTHEAST IOWA
  
CITY           SKY/WX    TMP DP  RH WIND       PRES   REMARKS
BURLINGTON     MIX PCPN  37  30  75 E6        30.19F WCI  32          
FAIRFIELD *    CLOUDY    36  30  80 E12       30.16F WCI  27          
FORT MADISON * LGT RAIN  37  32  81 E10       30.19F WCI  30          
KEOKUK *       CLOUDY    37  34  87 E10       30.17F WCI  30          
OSKALOOSA *    DRIZZLE   33  29  85 E14       30.17F WCI  23          
OTTUMWA        CLOUDY    34  29  82 E10       30.16F WCI  26          
WASHINGTON *   CLOUDY    34  32  93 E14       30.20F FOG     WCI  24  
$$

ABBREVIATIONS USED IN REMARKS
   TC - TEMPERATURES IN CELSIUS
  WCI - WIND CHILL INDEX
   HX - HEAT INDEX
  VSB - VISIBILITY  
$$